Location: Emblem
(62.4273°N, 6.4710°E)
Time: 00:05:30
(UTC+01:00)

Transit 2A Rocket - Pass Details

Date: 12 October 2024
Orbit: 584 x 906 km, 66.7° (Epoch: 05 November)

Event Time Altitude Azimuth Distance (km) Brightness Sun altitude
Rises 21:52:09 0° 263° (W) 3,536 9.2 -23.7°
Reaches altitude 10° 21:54:45 10° 267° (W) 2,587 8.4 -24.0°
Maximum altitude 22:00:45 61° 348° (NNW) 994 5.7 -24.6°
Enters shadow 22:03:22 32° 56° (NE) 1,432 6.2 -24.8°
